SCP
0 0 0 0 0 0 0 0 0 1 1 1 1 2 2 1 2 2 2 2 2 3 5 6 6 5 4 4 3 3 3 3 3 3 2 2 1 2 2 1 1 1 0 0
0 0 0 0 0 0 0 0 1 1 2 2 2 2 2 2 2 2 2 3 3 3 4 5 5 5 4 3 3 3 3 3 3 3 3 2 2 2 3 2 2 1 0 0
0 0 0 0 1 1 1 1 1 2 2 3 3 3 2 2 2 2 3 3 4 4 4 4 5 4 3 2 2 3 3 3 3 4 3 2 2 2 4 4 3 2 1 0
0 0 0 0 1 1 2 2 2 2 2 2 3 2 2 2 2 2 3 3 4 3 3 4 4 3 2 2 2 3 3 3 4 4 4 3 2 2 3 5 5 3 1 0
0 0 0 0 1 1 2 2 2 1 2 2 2 2 2 2 2 2 3 3 3 3 3 3 3 2 2 2 3 3 4 5 5 6 5 3 2 1 2 5 6 4 2 1
0 0 0 1 1 1 1 1 1 1 2 2 2 1 1 2 2 3 3 4 3 3 2 2 2 2 2 3 4 4 5 5 6 5 4 3 1 0 1 3 5 4 1 0
0 0 0 1 1 1 1 1 1 1 2 2 2 1 1 1 1 2 2 3 3 3 2 2 2 2 3 4 4 5 5 5 4 4 3 1 0 0 0 1 2 1 1 0
0 0 0 1 1 1 0 0 1 1 1 2 1 1 1 1 1 1 1 2 2 2 3 2 2 3 3 3 4 5 6 5 4 3 2 1 0 0 0 0 0 0 0 0
0 0 0 1 1 1 1 1 1 1 1 1 1 1 1 1 1 1 1 1 2 2 3 3 3 3 3 3 4 5 6 5 4 3 1 0 0 0 0 0 0 0 0 0
0 1 1 1 1 1 1 0 0 0 1 0 0 0 0 0 0 1 1 1 2 2 2 2 2 3 3 3 4 5 5 4 3 1 0 0 0 0 0 0 0 0 0 0
0 1 1 1 0 0 0 0 0 0 0 0 0 0 0 0 0 0 1 1 2 2 2 2 1 1 1 1 2 3 3 2 1 0 0 0 0 0 0 0 0 0 0 0
0 0 0 0 0 0 0 0 0 0 0 0 0 0 0 0 0 0 0 1 1 1 1 1 0 0 0 0 1 1 1 0 0 0 0 0 0 0 0 0 0 0 0 0
0 0 0 0 0 0 0 0 0 0 0 0 0 0 0 0 0 0 0 1 1 1 0 0 0 0 0 0 0 0 0 0 0 0 0 0 0 0 0 0 0 0 0 0
0 0 0 0 0 0 1 1 1 0 0 0 0 0 0 0 0 0 0 0 0 0 0 0 0 0 0 0 0 0 0 0 0 0 0 0 0 0 0 0 0 0 0 0
0 0 0 0 0 0 1 1 1 0 0 0 0 0 0 0 0 0 0 0 0 0 0 0 0 0 0 0 0 0 0 0 0 0 0 0 0 0 0 0 0 0 0 0
0 0 0 0 0 0 0 0 0 0 0 0 0 0 0 0 0 0 0 0 0 0 0 0 0 0 0 0 0 0 0 0 0 0 0 0 0 0 0 0 0 0 0 0
1 0 0 0 0 0 0 0 0 0 0 0 0 0 0 0 0 0 0 0 0 0 0 0 0 0 0 0 0 0 0 0 0 0 0 0 0 0 0 0 0 0 0 0
1 1 0 0 0 0 0 0 0 0 0 0 0 0 0 0 0 0 0 0 0 0 0 0 0 0 0 0 0 0 0 0 0 0 0 0 0 0 0 0 0 0 0 0
1 0 0 0 0 0 0 0 0 0 0 0 0 0 0 0 0 0 0 0 0 0 0 0 0 0 0 0 0 0 0 0 0 0 0 0 0 0 0 0 0 0 0 0
0 0 0 0 0 0 0 0 0 0 0 0 0 0 0 0 0 0 0 0 0 0 0 0 0 0 0 0 0 0 0 0 0 0 0 0 0 0 0 0 0 0 0 0
0 0 0 0 0 0 0 0 0 0 0 0 0 0 0 0 0 0 0 0 0 0 0 0 0 0 0 0 0 0 0 0 0 0 0 0 0 0 0 0 0 0 0 0
0 0 0 0 0 0 0 0 0 0 0 0 0 0 0 0 0 0 0 0 0 0 0 0 0 0 0 0 0 0 0 0 0 0 0 0 0 0 0 0 0 0 0 0
0 0 0 0 0 0 0 0 0 0 0 0 0 0 0 0 0 0 0 0 0 0 0 0 0 0 0 0 0 0 0 0 0 0 0 0 0 0 0 0 0 0 0 0
0 0 0 0 0 0 0 0 0 0 0 0 0 0 0 0 0 0 0 0 0 0 0 0 0 0 0 0 0 0 0 0 0 0 0 0 0 0 0 0 0 0 0 0
0 0 0 0 0 0 0 0 0 0 0 0 0 0 0 0 0 0 0 0 0 0 0 0 0 0 0 0 0 0 0 0 0 0 0 0 0 0 0 0 0 0 0 0
0 0 0 0 0 0 0 0 0 0 0 0 0 0 0 0 0 0 0 0 0 0 0 0 0 0 0 0 0 0 0 0 0 0 0 0 0 0 0 0 0 0 0 0
0 0 0 0 0 0 0 0 0 0 0 0 0 0 0 0 0 0 0 0 0 0 0 0 0 0 0 0 0 0 0 0 0 0 0 0 0 0 0 0 0 0 0 0
Wind_Speed
3 4 2 1 1 2 3 6 6 5 5 6 8 8 7 6 6 6 7 8 9 10 8 8 8 8 8 8 7 8 8 8 8 7 7 7 6 6 6 6 7 6 6 6
2 2 3 2 1 0 1 3 5 5 1 2 3 4 4 4 6 6 7 7 7 9 10 10 9 9 8 8 8 8 8 7 7 7 7 7 7 7 7 8 8 8 8 7
1 3 5 1 2 1 3 2 5 4 3 3 5 5 3 3 5 5 6 6 6 7 8 9 9 9 9 9 8 8 8 7 7 8 8 8 8 8 9 9 9 9 8 9
2 3 2 7 2 8 10 8 6 6 4 5 7 5 4 3 4 4 4 4 4 6 6 6 6 6 7 8 8 8 8 8 7 8 8 8 9 9 9 9 10 9 9 8
4 3 3 3 2 3 8 6 4 6 6 5 6 6 5 4 3 3 2 2 2 4 5 5 6 7 7 8 8 8 8 8 8 9 10 10 10 11 10 11 11 9 8 9
4 3 4 3 4 2 10 4 2 5 4 2 3 3 1 1 3 4 3 3 3 3 5 6 6 7 8 8 8 9 8 8 8 9 10 11 11 11 10 11 11 11 10 9
4 3 3 3 4 3 4 5 2 4 3 3 2 3 3 3 3 3 4 4 4 5 5 4 5 8 9 9 8 8 10 10 10 10 11 11 11 10 11 12 12 11 11 9
3 3 5 4 4 3 4 3 3 4 3 4 4 4 4 4 3 4 5 5 5 6 6 4 5 9 11 10 9 10 12 12 11 10 10 11 11 10 11 12 13 11 10 9
4 4 2 2 4 2 3 3 2 2 3 4 4 4 4 3 4 4 5 4 5 7 8 6 5 8 12 11 11 13 14 13 12 12 11 10 11 11 10 9 9 8 8 7
2 1 2 4 4 4 4 2 1 1 2 3 4 5 5 5 4 4 5 5 6 8 9 8 8 9 11 11 12 14 15 13 12 12 12 10 8 7 7 7 8 7 7 6
1 2 2 3 3 3 3 3 2 1 2 4 6 6 6 5 5 5 6 6 7 9 10 10 10 11 11 11 13 15 15 13 12 12 11 11 10 8 7 5 6 8 6 6
4 5 4 2 0 2 2 2 2 4 4 4 6 7 7 6 6 7 7 8 9 11 11 11 11 12 11 10 13 15 13 12 10 9 9 9 11 10 15 12 13 13 10 8
4 3 4 4 2 3 3 4 4 6 6 7 7 8 10 9 8 9 10 10 11 11 12 12 12 12 10 9 11 13 13 11 9 9 8 8 8 10 9 9 12 11 10 10
8 7 4 3 3 4 5 7 8 9 9 9 10 11 11 12 12 12 11 10 11 12 12 12 12 11 9 10 11 12 11 12 10 8 7 7 7 7 7 7 5 3 4 5
4 4 6 6 6 6 6 8 10 10 10 11 11 12 12 13 13 12 10 10 12 12 11 11 12 10 8 10 11 11 9 7 8 8 7 7 6 6 5 6 5 3 2 3
7 8 10 10 9 8 7 9 10 10 10 11 11 11 11 12 12 11 10 10 11 11 10 10 10 7 7 9 10 8 8 12 10 7 7 7 6 6 5 5 4 3 2 2
11 10 10 10 10 9 8 8 9 10 10 11 12 12 12 12 12 11 9 9 10 10 9 8 8 7 8 9 9 7 6 9 12 9 6 6 6 6 6 5 4 3 2 3
9 10 11 12 12 11 10 10 10 10 10 11 11 11 11 11 11 10 10 10 11 10 7 6 7 8 7 7 7 6 6 6 6 6 6 6 6 6 6 5 5 5 3 3
10 12 11 11 11 11 11 10 10 9 9 10 10 10 10 10 9 9 9 10 10 8 5 6 10 8 7 8 8 6 6 7 6 6 6 8 7 5 5 5 5 4 4 3
12 12 12 12 10 10 10 10 10 9 8 9 10 10 10 9 9 9 9 7 4 4 5 6 7 7 6 7 9 6 7 7 7 6 5 5 5 5 5 5 5 4 4 3
13 13 13 12 11 10 10 10 10 10 9 9 10 9 9 8 8 8 8 6 3 4 6 8 6 4 4 6 9 6 6 6 6 5 5 5 5 5 5 5 5 4 4 3
11 12 12 11 11 9 8 8 9 10 10 9 9 9 9 8 8 6 5 4 4 6 5 4 4 5 7 8 5 5 5 6 5 5 5 5 5 5 5 5 4 3 3 3
9 10 10 10 10 9 9 8 9 9 9 9 9 9 8 7 6 6 5 2 4 6 5 3 6 9 10 6 4 5 5 5 5 5 5 5 5 5 4 4 4 3 3 3
10 10 9 9 9 10 9 8 8 7 8 8 7 8 8 6 4 3 4 7 8 8 4 5 9 10 8 4 4 4 5 5 5 5 5 4 4 4 4 4 3 3 3 4
10 10 10 10 9 7 8 8 9 8 8 6 6 6 5 5 5 5 5 6 9 8 4 5 8 8 5 4 4 4 4 4 5 4 4 4 4 4 4 4 4 3 3 4
8 8 7 7 7 6 6 6 5 5 5 5 5 4 4 4 6 5 5 6 7 7 5 3 3 4 3 3 4 4 4 4 4 4 4 4 4 4 4 4 4 4 4 4
8 7 6 6 5 5 5 5 5 5 5 6 5 5 5 5 5 5 5 4 4 4 3 3 3 3 3 3 3 3 4 4 4 4 4 4 4 4 4 5 4 4 4 4
Wind_Direction
185 197 155 180 194 138 144 172 173 204 184 212 207 191 183 175 172 171 167 170 176 173 170 172 171 169 169 171 168 165 162 165 168 162 152 144 139 133 126 120 116 111 105 95
8 14 62 40 334 14 124 139 141 127 110 254 152 130 128 152 157 170 176 174 177 175 171 177 178 173 169 166 163 156 158 162 155 148 143 139 136 128 119 110 101 96 93 91
308 350 52 339 269 93 71 61 131 143 181 140 96 94 123 143 152 164 173 167 168 179 182 180 177 169 170 167 155 150 152 151 148 144 138 134 130 120 116 110 105 98 92 88
125 64 214 246 271 105 90 59 67 96 99 108 118 107 79 89 121 129 158 166 171 176 174 176 169 163 160 154 149 148 148 148 143 137 131 126 122 117 113 108 103 99 93 89
121 157 257 303 356 114 112 68 42 96 92 111 132 87 47 36 81 114 111 124 161 164 151 156 156 151 147 145 142 141 143 142 138 134 129 126 122 120 116 109 103 97 93 88
126 149 207 248 301 94 103 93 7 94 94 92 106 99 224 50 79 80 76 75 103 117 122 139 149 141 137 138 136 138 135 128 123 122 122 122 121 117 113 109 107 101 90 82
144 177 236 271 307 49 122 189 181 101 99 96 131 177 167 126 98 88 88 78 97 110 117 131 137 134 130 125 125 124 117 113 110 109 110 114 113 114 115 113 108 101 94 82
135 164 236 316 40 100 174 167 108 92 92 104 123 114 113 114 106 96 91 87 101 110 109 107 120 129 125 121 119 113 108 104 102 102 105 107 109 109 112 115 111 106 98 83
178 192 232 26 98 101 114 112 99 102 107 127 137 139 127 109 102 98 99 98 101 108 101 92 98 117 119 117 116 110 103 100 98 94 91 95 102 108 109 110 111 108 102 94
99 118 74 55 58 48 56 79 77 128 153 160 161 149 132 115 103 96 94 100 103 103 101 94 91 95 105 110 111 108 105 101 98 95 88 79 79 88 100 107 112 111 109 104
128 146 86 42 39 40 39 47 51 76 132 151 145 139 132 119 112 106 95 95 97 101 101 99 97 96 99 105 107 105 103 101 96 92 93 86 75 65 80 80 115 122 120 122
203 196 170 186 94 55 62 58 73 99 97 108 126 128 121 115 109 104 99 97 98 98 99 97 96 93 93 100 107 109 107 105 104 103 100 100 97 80 57 73 87 97 109 112
151 131 124 131 92 64 79 80 84 97 108 108 106 112 111 104 98 97 95 96 98 98 98 97 94 93 94 100 105 108 112 113 111 111 112 110 109 110 99 66 66 79 92 98
120 113 114 108 98 82 90 92 92 91 92 98 103 103 104 101 98 95 94 94 96 96 96 97 96 93 93 98 102 106 111 117 119 120 121 119 117 117 119 121 108 68 56 78
118 118 128 120 108 99 99 103 103 99 98 97 101 105 105 105 103 99 97 97 95 94 94 96 96 94 96 100 103 107 111 118 121 124 126 125 124 121 117 116 113 104 64 43
121 115 121 122 119 114 113 114 113 110 107 105 105 105 105 105 104 102 100 100 99 98 98 99 101 104 101 101 102 102 106 114 117 118 119 119 121 122 121 121 118 109 98 92
137 140 140 135 131 126 122 120 119 116 113 111 111 110 109 107 103 101 99 96 97 99 99 101 104 103 99 101 102 104 105 111 112 111 115 120 123 126 127 126 125 121 119 123
142 143 145 142 138 132 125 120 119 119 119 119 118 116 114 112 110 108 105 102 96 90 89 102 105 101 99 104 108 108 106 105 107 111 112 113 119 123 125 125 126 124 117 103
130 134 134 132 133 132 129 127 125 122 121 121 120 117 114 112 111 110 107 105 105 104 101 106 107 101 103 109 111 107 108 108 105 105 108 113 113 115 120 124 126 130 129 119
129 131 131 129 128 129 130 129 126 122 121 121 118 115 113 113 114 110 104 100 107 124 121 106 97 92 95 105 109 108 110 113 113 112 110 112 117 119 122 126 128 128 128 129
135 134 133 131 128 126 128 130 129 127 125 125 125 124 122 118 116 113 111 107 103 106 103 100 95 98 98 110 110 111 112 115 118 119 118 119 118 119 122 126 129 133 135 136
133 134 132 129 127 125 127 127 127 127 124 123 124 124 123 121 116 108 108 125 131 114 101 94 98 104 107 107 111 115 117 117 117 117 119 123 124 127 131 136 139 144 147 152
123 126 126 126 127 125 122 122 125 127 127 128 130 132 133 133 133 132 130 133 122 116 109 111 115 107 104 100 110 117 119 121 123 127 131 134 137 140 144 149 157 160 162 169
115 116 117 118 117 116 117 118 117 120 123 123 127 131 131 125 113 116 128 135 133 122 115 125 118 108 101 102 109 113 118 122 128 134 137 140 144 147 152 157 164 174 181 185
115 117 117 116 114 116 118 117 114 115 116 118 123 126 128 133 137 140 133 136 137 127 122 131 124 114 104 109 118 122 129 138 140 141 144 148 154 159 166 170 176 183 194 204
107 110 112 115 118 122 125 123 122 126 124 121 119 120 119 119 124 127 129 140 143 141 142 142 134 123 121 127 137 143 149 151 146 147 156 159 165 168 176 185 192 197 207 216
95 97 101 101 103 113 119 123 127 131 134 136 135 136 133 130 131 138 140 142 146 153 159 164 162 162 161 164 168 172 170 167 166 169 171 174 176 183 192 196 202 208 215 223